Regional Weather Roundup
Issued by NWS

Home | Current Version | Previous Version | Text Only | Print | Product List | Glossary On
Versions: 1 2 3 4 5 6 7 8 9 10 11 12 13 14 15 16 17 18 19 20 21 22 23 24 25 26 27 28 29 30 31 32 33 34 35 36 37 38 39 40 41 42 43 44 45 46 47 48 49 50
000
ASUS44 KLUB 232210
RWRTX
WEST TEXAS WEATHER ROUNDUP
NATIONAL WEATHER SERVICE LUBBOCK TX
400 PM CST SUN NOV 23 2014

NOTE: "FAIR" INDICATES FEW OR NO CLOUDS BELOW 12,000 FEET WITH NO
SIGNIFICANT WEATHER AND/OR OBSTRUCTIONS TO VISIBILITY.

TXZ004-006>008-010-012-014-016-OKZ002-232300-
TEXAS PANHANDLE/OKLAHOMA PANHANDLE

CITY           SKY/WX    TMP DP  RH WIND       PRES   REMARKS
AMARILLO       CLOUDY    38  34  85 N14       29.73S WCI  30
BORGER         CLOUDY    44  27  51 N9        29.72R
CANADIAN       CLOUDY    46  34  62 N22G31    29.68R
DALHART        CLOUDY    47  13  25 N23       29.75R
DUMAS            N/A     43  23  44 N17       29.73R
GUYMON         CLOUDY    49  10  20 N26G44    29.68R
HEREFORD       CLOUDY    40  33  77 NW12      29.77R WCI  32
PAMPA          LGT RAIN  39  34  80 N22G28    29.70R WCI  29
PERRYTON       CLOUDY    46  29  52 N18       29.66R
$$

TXZ026-029-035-045-048-232300-
SOUTHERN PANHANDLE/SOUTH PLAINS/ROLLING PLAINS

CITY           SKY/WX    TMP DP  RH WIND       PRES   REMARKS
CHILDRESS      CLOUDY    54  32  43 N28G41    29.68R
SEMINOLE       PTSUNNY   65  24  20 NW35G45   29.69R
LUBBOCK        MOSUNNY   49  30  48 N29G40    29.70R
PLAINVIEW      PTSUNNY   42  32  67 N28G39    29.74R
SNYDER         MOSUNNY   65  33  29 N17G26    29.62R
$$

TXZ052-054-060>062-072-078-127-140-154-169-232300-
PERMIAN BASIN/CONCHO VALLEY/BIG COUNTRY/EDWARDS PLATEAU

CITY           SKY/WX    TMP DP  RH WIND       PRES   REMARKS
ABILENE        SUNNY     69  33  26 NW22      29.57R
BIG SPRING     CLOUDY    72  28  19 W24G38    29.66R
BRADY          SUNNY     73  34  23 W16       29.57R
BROWNWOOD      SUNNY     73  36  25 W17G25    29.53R
JUNCTION       SUNNY     78  31  17 W17G25    29.60R
MIDLAND        MOSUNNY   72  23  16 NW26G37   29.64S
ODESSA         SUNNY     71  19  14 NW28G39   29.66R
SAN ANGELO     SUNNY     76  26  15 NW22G31   29.60R
SONORA         MOSUNNY   75  27  16 W12G21    29.67S
SWEETWATER     MOSUNNY   68  32  26 NW14      29.63R
WINK           SUNNY     72  19  13 NW28G37   29.66R
$$

TXZ055-058-074-075-080-082-232300-
FAR WEST/SOUTHWEST MOUNTAINS/TRANS PECOS

CITY           SKY/WX    TMP DP  RH WIND       PRES   REMARKS
ALPINE         SUNNY     65  21  18 W25G44    29.85R
DRYDEN           N/A     80  25  13 W21G35    29.64S
EL PASO        MOSUNNY   63  22  20 W41G53    29.79F
FORT STOCKTON  SUNNY     71  24  17 W23G33    29.71R
GUADALUPE PASS PTSUNNY   57  21  24 SW40G56   29.78R
MARFA          SUNNY     63  25  23 W35G44    29.79F
PECOS          SUNNY     71  26  18 W30G38    29.71R
PRESIDIO       FAIR      75  29  18 W16G28    29.76S
$$

TXZ014-016-019-021>030-083-232300
TEXAS TECH WEST TEXAS MESONET/TEXAS PANHANDLE/NORTHERN SOUTH PLAINS

CITY           SKY/WX    TMP DP  RH WIND       PRES   REMARKS
ABERNATHY 5ENE   N/A     45  32  60 N29G39    29.74R
AMARILLO 9NNE    N/A     39  33  80 N5        29.74S
AMARILLO 7SSE    N/A     38  33  84 N3        29.74S
AMHERST 1NE      N/A     43  30  60 N26G40    29.77R
BOOTLEG 11WNW    N/A     36  29  78 N13       29.83R WCI  27
CANADIAN 6E      N/A     44  31  59 NW31      29.66R
CAPROCK CYN SP   N/A     46  34  62 N12       29.72R
CHILDRESS 2NNE   N/A     52  32  47 NW30      29.67R
CLARENDON 2WSW   N/A     42  34  72 NW22      29.71R
CLAUDE 12SW      N/A     38  32  80 NW15      29.73R WCI  29
DIMMITT 2NE      N/A     37  32  80 NW20      29.78R WCI  27
FLOYDADA 2NNE    N/A     46  30  55 N30       29.71R
FRIONA 2NE       N/A     36  32  84 N14       29.80R WCI  27
GOODLETT 3W      N/A     54  33  44 NW26      29.65R
HART 3N          N/A     39  31  71 N21       29.77R WCI  29
HEREFORD 2NW     N/A     37  30  75 N9        29.78R WCI  31
MCLEAN 1E        N/A     42  32  66 NW33G44   29.67R
MEMPHIS 1NE      N/A     49  33  52 NW23G36   29.70R
MULESHOE 2SSW    N/A     43  29  58 N22       29.80R
OLTON 6S         N/A     41  31  68 N31       29.75R
PALO DURO SP     N/A     39  31  71 N13       29.76R WCI  32
PAMPA 2E         N/A     39  34  80 NW20G30   29.69R WCI  30
PLAINVIEW 1S     N/A     42  32  69 NW22G32   29.74R
SILVERTON 7ESE   N/A     44  33  67 NW24      29.72R
TULIA 2ENE       N/A     39  33  77 NW20      29.75S WCI  29
TURKEY 2WSW      N/A     46  34  61 NW28G38   29.70R
UMBARGER 3NNE    N/A     39  30  70 N14       29.75S WCI  31
$$

TXZ033>036-039>041-045>048-232300
TEXAS TECH WEST TEXAS MESONET/SOUTH PLAINS

CITY           SKY/WX    TMP DP  RH WIND       PRES   REMARKS
AIKEN 3WSW       N/A     42  33  69 N23       29.76R
ANTON 6SSW       N/A     45  31  58 N29G38    29.74R
BROWNFIELD 2S    N/A     56  29  35 N23       29.68R
DENVR CTY 7WNW   N/A     60  17  18 NW33G49   29.69R
GAIL 2ESE        N/A     66  28  23 NW24G38   29.62R
LAMESA 2SE       N/A     64  23  21 NW29G41   29.65R
LEVELLAND 4S     N/A     47  29  50 N30       29.74R
LUBBOCK 3WNW     N/A     48  30  50 N24G35    29.73R
MORTON 1ENE      N/A     45  30  54 N28       29.75R
ODONNELL 1N      N/A     59  32  35 N18       29.66R
PLAINS 3N        N/A     49  29  44 N29       29.73R
RALLS 1SE        N/A     51  30  45 N25G35    29.70R
REESE CENTER     N/A     46  31  54 N30G40    29.73R
SEAGRAVES 1SW    N/A     61  22  22 NW28G44   29.67R
SEMINOLE 2NNE    N/A     64  21  19 NW25G37   29.67R
SLATON 2NE       N/A     53  27  37 N26G37    29.69R
SNYDER 3E        N/A     64  33  31 N17       29.61R
SUNDOWN 8SW      N/A     49  29  45 N26G37    29.74R
TAHOKA 3NNE      N/A     58  28  32 N22       29.68R
WOLFFORTH 6SSW   N/A     51  30  45 N26G37    29.72R
$$

TXZ031-032-036>038-042>044-232300-
TEXAS TECH WEST TEXAS MESONET/ROLLING PLAINS

CITY           SKY/WX    TMP DP  RH WIND       PRES   REMARKS
ASPERMONT 3NE    N/A     63  35  35 NW23G33   29.60R
FLUVANNA 3WNW    N/A     62  33  33 N21       29.63R
GRAHAM 5SSW      N/A     59  29  32 N22G31    29.65R
GUTHRIE 10WSW    N/A     60  33  36 NW25G35   29.62R
HASKELL 1NW      N/A     62  37  39 NW25      29.58R
JAYTON 1SSE      N/A     62  32  32 N20       29.62R
KNOX CITY 3NW    N/A     63  33  32 NW24G36   29.60R
LK A HENRY 1NW   N/A     63  33  32 N17       29.63R
NORTHFIELD 1S    N/A     51  33  51 NW24      29.71R
ODELL 4ENE       N/A     55  38  54 NW23      29.62R
POST 1NE         N/A     61  30  30 N17       29.65R
RRING SPRGS 3N   N/A     53  30  41 N26       29.67R
SEYMOUR 3NW      N/A     61  41  47 NW23G35   29.57R
SPUR 1W          N/A     60  29  31 N24       29.63R
WEINERT 2NNE     N/A     62  37  39 NW24      29.59R
WHITE RVR 6NE    N/A     57  29  34 N29       29.65R
$$

TXZ052-054-060>062-072-078-127-140-154-169-232300-
TEXAS TECH WEST TEXAS MESONET/PERMIAN BASIN/
CONCHO VALLEY/BIG COUNTRY/EDWARDS PLATEAU

CITY           SKY/WX    TMP DP  RH WIND       PRES   REMARKS
COYANOSA 2N      N/A     72  25  17 W21       29.70R
JUNCTION 1SSW    N/A     78  32  18 W13       29.60R
MERTZON 3NNE     N/A     75  28  17 W20       29.63R
SAN ANGELO 7NW   N/A     73  27  18 NW17      29.61R
STRLNG CT 4WSW   N/A     71  28  20 W18       29.63R
ST LAWRNCE 5SW   N/A     71  20  14 NW20G30   29.64R
SWEETWATR 11SW   N/A     69  28  21 W25       29.61R
WALL 1E          N/A     74  28  18 W21       29.61R
$$

TXZ055-058-074-075-080-082-232300-
TEXAS TECH WEST TEXAS MESONET/FAR WEST/SOUTHWEST MOUNTAINS/TRANS PECOS

CITY           SKY/WX    TMP DP  RH WIND       PRES   REMARKS
PRSMN GAP BBNP   N/A     76  31  19 W20       29.73S
GUADLPE MTN NP   N/A     55  20  26 W22G47    29.82R
$$


USA.gov is the U.S. government's official web portal to all federal, state and local government web resources and services.